Regional Weather Roundup
Issued by NWS Goodland, KS

Home | Current Version | Previous Version | Graphics & Text | Print | Product List | Glossary On
Versions: 1 2 3 4 5 6 7 8 9 10 11 12 13 14 15 16 17 18 19 20 21 22 23 24 25 26 27 28 29 30 31 32 33 34 35 36 37 38 39 40 41 42 43 44 45 46 47 48 49 50
000
ASUS43 KGLD 202008
RWRGLD

GOODLAND FORECAST AREA HOURLY WEATHER ROUNDUP
NATIONAL WEATHER SERVICE GOODLAND KS
200 PM MDT THU JUL 20 2017

...OFFICIAL OBSERVATIONS...

CITY           SKY/WX    TMP DP  RH WIND       PRES   REMARKS
GOODLAND KS    SUNNY     93  63  36 SW9       30.03F
HILL CITY KS   SUNNY    104  59  22 S10       29.95F HX 104
IMPERIAL NEB   SUNNY     97  53  22 VRB6      30.00F
MCCOOK NEB     MOSUNNY   98  64  32 E10       29.96F HX 100
AKRON CO       SUNNY     93  53  25 VRB3      30.12F
BURLINGTON CO  SUNNY     92  65  40 NW7       30.07F
LIMON CO       SUNNY     88  53  30 VRB3      30.17F
$$

...UNOFFICIAL OBSERVATIONS...

CITY           SKY/WX    TMP DP  RH WIND       PRES   REMARKS
LENORA KS        N/A     99  32   9 MISG        N/A
NORTON KS      SUNNY    100  54  20 SE10G18   29.96F
SHARON SPRINGS   N/A     96  65  36 S12G18      N/A
TRENTON NEB      N/A    103  32   8 S8          N/A
KIT CARSON CO    N/A     93  61  34 MISG        N/A
YUMA CO        FAIR      88  41  19 NW8       30.08F
$$




USA.gov is the U.S. government's official web portal to all federal, state and local government web resources and services.